Flag for Germany Weather past 2 weeks in Mönchengladbach, North Rhine-Westphalia, Germany

Now
61 °F

Passing clouds.


Feels Like: 61 °F
Forecast: 49 / 69 °F
Wind: 14 mph from East

Location: Monchengladbach Airport


UV Index: 3 (Moderate)

Visibility: N/A


Pressure: 29.92 "Hg

Humidity: 52%

Dew point: 43 °F

Location of MönchengladbachLocation

Historic Weather in Mönchengladbach

°F

Mönchengladbach temperature yesterday

Maximum temperature yesterday: 55 °F (at 3:50 PM)
Minimum temperature yesterday: 43 °F (at 7:50 AM)
Average temperature yesterday: 51 °F

Past Weeks' High & Low Weather Summary

 TemperatureHumidityPressure
High72 °F (Apr 7, 3:50 PM)100% (Apr 5, 7:50 AM)30.45 "Hg (Apr 5, 7:50 AM)
Low32 °F (Apr 16, 7:50 AM)26% (Apr 17, 4:20 PM)29.77 "Hg (Apr 7, 8:20 PM)
Average55 °F66%30.10 "Hg
* Reported Apr 4 6:20 PM — Apr 19 6:50 PM, Mönchengladbach, Weather by CustomWeather, © 2014

Note: Actual official high and low records may vary slightly from our data, if they occured in-between our weather recording intervals... More about our weather records

Advertising

Historic Weather Conditions — Data for Previous 24 hours

 ConditionsComfort  
Time TempWeatherWind HumidityBarometerVisibility
6:50 PM
Apr 19
61 °FPassing clouds.13 mph52%29.89 "HgN/A
6:20 PM63 °FPassing clouds.14 mph49%29.92 "HgN/A
5:50 PM63 °FPassing clouds.14 mph49%29.92 "HgN/A
5:20 PM63 °FPassing clouds.21 mph45%29.92 "HgN/A
4:50 PM61 °FPassing clouds.14 mph48%29.95 "HgN/A
4:20 PM61 °FPassing clouds.14 mph48%29.95 "HgN/A
3:50 PM61 °FPassing clouds.13 mph48%29.98 "HgN/A
3:20 PM59 °FPassing clouds.12 mph51%29.98 "HgN/A
2:50 PM59 °FPassing clouds.13 mph48%30.01 "HgN/A
2:20 PM59 °FPassing clouds.10 mph48%30.01 "HgN/A
1:50 PM57 °FPassing clouds.9 mph51%30.01 "HgN/A
1:20 PM57 °FPassing clouds.10 mph51%30.01 "HgN/A
12:50 PM55 °FPassing clouds.10 mph51%30.01 "HgN/A
12:20 PM55 °FScattered clouds.10 mph55%30.04 "HgN/A
11:50 AM54 °FScattered clouds.12 mph63%30.04 "HgN/A
11:20 AM52 °FScattered clouds.12 mph67%30.07 "HgN/A
10:50 AM50 °FScattered clouds.10 mph71%30.07 "HgN/A
10:20 AM50 °FPassing clouds.10 mph71%30.07 "HgN/A
9:50 AM50 °FPassing clouds.8 mph82%30.07 "HgN/A
9:20 AM48 °FPassing clouds.9 mph87%30.07 "HgN/A
8:50 AM46 °FPassing clouds.7 mph93%30.04 "HgN/A
8:20 AM45 °FPassing clouds.6 mph100%30.04 "HgN/A
7:50 AM41 °FSunny.3 mph100%30.04 "Hg10 mi
8:20 PM
Apr 18
50 °FPassing clouds.14 mph62%29.98 "HgN/A
Weather by CustomWeather, © 2014

See weather overview